START_TIME,STEP,MOV.,M29,t_acc.,H22,t_acc.,H26,t_acc.,H30,t_acc.
1986-01-24 03:00:09.420 ,3,1,0.,24.0,0.,24.0,0.,24.0,0.,24.0
1986-01-24 03:00:33.420 ,3,0,0.,24.0,0.,24.0,0.,24.0,0.,24.0
1986-01-24 03:00:57.420 ,2,1,0.,24.0,0.,24.0,0.,24.0,0.,24.0
1986-01-24 03:01:21.420 ,2,0,0.,24.0,0.,24.0,0.,24.0,0.,24.0
1986-01-24 03:01:45.420 ,1,1,0.,24.0,0.,24.0,0.,24.0,0.,24.0
1986-01-24 03:02:09.420 ,1,0,0.,24.0,0.,24.0,0.,24.0,0.,24.0
1986-01-24 03:02:33.420 ,0,1,0.,24.0,0.,24.0,0.,24.0,0.,24.0
1986-01-24 03:02:57.420 ,0,0,0.,24.0,0.,24.0,0.,24.0,0.,24.0
1986-01-24 03:03:21.420 ,0,1,0.,24.0,0.,24.0,0.,24.0,0.,24.0
1986-01-24 03:03:45.420 ,0,0,0.,24.0,0.,24.0,0.,24.0,0.,24.0
1986-01-24 03:04:09.420 ,1,1,0.,24.0,0.,24.0,0.,24.0,0.,24.0
1986-01-24 03:04:33.420 ,1,0,0.,24.0,0.,24.0,0.,24.0,0.,24.0
1986-01-24 03:04:57.420 ,2,1,0.,24.0,0.,24.0,0.,24.0,0.,24.0
1986-01-24 03:05:21.420 ,2,0,0.,24.0,0.,24.0,0.,24.0,0.,24.0
1986-01-24 03:05:45.420 ,3,1,0.,24.0,0.,24.0,0.,24.0,0.,24.0
1986-01-24 03:06:09.420 ,3,0,0.,24.0,0.,24.0,0.,24.0,0.,24.0
1986-01-24 03:06:33.420 ,4,1,0.,24.0,0.,24.0,0.,24.0,0.,24.0
1986-01-24 03:06:57.420 ,4,0,0.,24.0,0.,24.0,0.,24.0,0.,24.0
1986-01-24 03:07:21.420 ,5,1,0.,24.0,0.,24.0,0.,24.0,0.,24.0
1986-01-24 03:07:45.420 ,5,0,0.,24.0,0.,24.0,0.,24.0,0.,24.0
1986-01-24 03:08:09.420 ,6,1,0.,24.0,0.,24.0,0.,24.0,0.,24.0
1986-01-24 03:08:33.420 ,6,0,0.,24.0,0.,24.0,0.,24.0,0.,24.0
1986-01-24 03:08:57.420 ,7,1,0.,24.0,0.,24.0,0.,24.0,0.,24.0
1986-01-24 03:09:21.420 ,7,0,0.,24.0,0.,24.0,0.,24.0,0.,24.0
1986-01-24 03:09:45.420 ,7,1,0.,24.0,0.,24.0,0.,24.0,0.,24.0
1986-01-24 03:10:09.420 ,7,0,0.,24.0,0.,24.0,0.,24.0,0.,24.0
1986-01-24 03:10:33.420 ,6,1,0.,24.0,0.,24.0,0.,24.0,0.,24.0
1986-01-24 03:10:57.420 ,6,0,0.,24.0,0.,24.0,0.,24.0,0.,24.0
1986-01-24 03:11:45.420 ,5,0,0.,24.0,0.,24.0,0.,24.0,0.,24.0
1986-01-24 03:12:09.420 ,4,1,0.,24.0,0.,24.0,0.,24.0,0.,24.0
1986-01-24 03:12:33.420 ,4,0,0.,24.0,0.,24.0,0.,24.0,0.,24.0
1986-01-24 03:12:57.420 ,3,1,0.,24.0,0.,24.0,0.,24.0,0.,24.0
1986-01-24 03:13:21.420 ,3,0,0.,24.0,0.,24.0,0.,24.0,0.,24.0
1986-01-24 03:13:45.420 ,2,1,0.,24.0,0.,24.0,0.,24.0,0.,24.0
1986-01-24 03:14:09.420 ,2,0,0.,24.0,0.,24.0,0.,24.0,0.,24.0
1986-01-24 03:14:33.420 ,1,1,0.,24.0,0.,24.0,0.,24.0,0.,24.0
1986-01-24 03:14:57.420 ,1,0,0.,24.0,0.,24.0,0.,24.0,0.,24.0
1986-01-24 03:15:21.420 ,0,1,0.,24.0,0.,24.0,0.,24.0,0.,24.0
1986-01-24 03:15:45.420 ,0,0,0.,24.0,0.,24.0,0.,24.0,0.,24.0
1986-01-24 03:16:09.420 ,0,1,0.,24.0,0.,24.0,0.,24.0,0.,24.0
1986-01-24 03:16:33.420 ,0,0,0.,24.0,0.,24.0,0.,24.0,0.,24.0
1986-01-24 03:16:57.420 ,1,1,0.,24.0,0.,24.0,0.,24.0,0.,24.0
1986-01-24 03:17:21.420 ,1,0,0.,24.0,0.,24.0,0.,24.0,0.,24.0
1986-01-24 03:17:45.420 ,2,1,0.,24.0,0.,24.0,0.,24.0,0.,24.0
1986-01-24 03:18:09.420 ,2,0,0.,24.0,0.,24.0,0.,24.0,0.,24.0
1986-01-24 03:18:33.420 ,3,1,0.,24.0,0.,24.0,0.,24.0,0.,24.0
1986-01-24 03:18:57.420 ,3,0,0.,24.0,0.,24.0,0.,24.0,0.,24.0
1986-01-24 03:19:21.420 ,4,1,0.,24.0,0.,24.0,0.,24.0,0.,24.0
1986-01-24 03:19:45.420 ,4,0,0.,24.0,0.,24.0,0.,24.0,0.,24.0
1986-01-24 03:20:09.420 ,5,1,0.,24.0,0.,24.0,0.,24.0,0.,24.0
1986-01-24 03:20:33.420 ,5,0,0.,24.0,0.,24.0,0.,24.0,0.,24.0
1986-01-24 03:20:57.420 ,6,1,0.,24.0,0.,24.0,0.,24.0,0.,24.0
1986-01-24 03:21:21.420 ,6,0,0.,24.0,0.,24.0,0.,24.0,0.,24.0
1986-01-24 03:21:45.420 ,7,1,0.,24.0,0.,24.0,0.,24.0,0.,24.0
1986-01-24 03:22:09.420 ,7,0,0.,24.0,0.,24.0,0.,24.0,0.,24.0
1986-01-24 03:22:33.420 ,7,1,0.,24.0,0.,24.0,0.,24.0,0.,24.0
1986-01-24 03:22:57.420 ,7,0,0.,24.0,0.,24.0,0.,24.0,0.,24.0
1986-01-24 03:23:21.420 ,6,1,0.,24.0,0.,24.0,0.,24.0,0.,24.0
1986-01-24 03:23:45.420 ,6,0,0.,24.0,0.,24.0,0.,24.0,0.,24.0
1986-01-24 03:24:09.420 ,5,1,0.,24.0,0.,24.0,0.,24.0,0.,24.0
1986-01-24 03:24:33.420 ,5,0,0.,24.0,0.,24.0,0.,24.0,0.,24.0
1986-01-24 03:24:57.420 ,4,1,0.,24.0,0.,24.0,0.,24.0,0.,24.0
1986-01-24 03:25:21.420 ,4,0,0.,24.0,0.,24.0,0.,24.0,0.,24.0
1986-01-24 03:25:45.420 ,3,1,0.,24.0,0.,24.0,0.,24.0,0.,24.0
1986-01-24 03:26:09.420 ,3,0,0.,24.0,0.,24.0,0.,24.0,0.,24.0
1986-01-24 03:26:33.420 ,2,1,0.,24.0,0.,24.0,0.,24.0,0.,24.0
1986-01-24 03:26:57.420 ,2,0,0.,24.0,0.,24.0,0.,24.0,0.,24.0
1986-01-24 03:27:21.420 ,1,1,0.,24.0,0.,24.0,0.,24.0,0.,24.0
1986-01-24 03:27:45.420 ,1,0,0.,24.0,0.,24.0,0.,24.0,0.,24.0
1986-01-24 03:28:09.420 ,0,1,0.,24.0,0.,24.0,0.,24.0,0.,24.0
1986-01-24 03:28:33.420 ,0,0,0.,24.0,0.,24.0,0.,24.0,0.,24.0
1986-01-24 03:28:57.420 ,0,1,0.,24.0,0.,24.0,0.,24.0,0.,24.0
1986-01-24 03:29:21.420 ,0,0,0.,24.0,0.,24.0,0.,24.0,0.,24.0
1986-01-24 03:29:45.420 ,1,1,0.,24.0,0.,24.0,0.,24.0,0.,24.0
1986-01-24 03:30:09.420 ,1,0,0.,24.0,0.,24.0,0.,24.0,0.,24.0
1986-01-24 03:30:33.420 ,2,1,0.,24.0,0.,24.0,0.,24.0,0.,24.0
1986-01-24 03:30:57.420 ,2,0,0.,24.0,0.,24.0,0.,24.0,0.,24.0
1986-01-24 03:31:21.420 ,3,1,0.,24.0,0.,24.0,0.,24.0,0.,24.0
1986-01-24 03:31:45.420 ,3,0,0.,24.0,0.,24.0,0.,24.0,0.,24.0
1986-01-24 03:32:09.420 ,4,1,0.,24.0,0.,24.0,0.,24.0,0.,24.0
1986-01-24 03:32:33.420 ,4,0,0.,24.0,0.,24.0,0.,24.0,0.,24.0
1986-01-24 03:32:57.420 ,5,1,0.,24.0,0.,24.0,0.,24.0,0.,24.0
1986-01-24 03:33:21.420 ,5,0,0.,24.0,0.,24.0,0.,24.0,0.,24.0
1986-01-24 03:33:45.420 ,6,1,0.,24.0,0.,24.0,0.,24.0,0.,24.0
1986-01-24 03:34:09.420 ,6,0,0.,24.0,0.,24.0,0.,24.0,0.,24.0
1986-01-24 03:34:33.420 ,7,1,0.,24.0,0.,24.0,0.,24.0,0.,24.0
1986-01-24 03:34:57.420 ,7,0,0.,24.0,0.,24.0,0.,24.0,0.,24.0
1986-01-24 03:35:21.420 ,7,1,0.,24.0,0.,24.0,0.,24.0,0.,24.0
1986-01-24 03:35:45.420 ,7,0,0.,24.0,0.,24.0,0.,24.0,0.,24.0
1986-01-24 03:36:09.420 ,6,1,0.,24.0,0.,24.0,0.,24.0,0.,24.0
1986-01-24 03:36:33.420 ,6,0,0.,24.0,0.,24.0,0.,24.0,0.,24.0
1986-01-24 03:36:57.420 ,5,1,0.,24.0,0.,24.0,0.,24.0,0.,24.0
1986-01-24 03:37:21.420 ,5,0,0.,24.0,0.,24.0,0.,24.0,0.,24.0
1986-01-24 03:37:45.420 ,4,1,0.,24.0,0.,24.0,0.,24.0,0.,24.0
1986-01-24 03:38:09.420 ,4,0,0.,24.0,0.,24.0,0.,24.0,0.,24.0
1986-01-24 03:38:33.420 ,3,1,0.,24.0,0.,24.0,0.,24.0,0.,24.0
1986-01-24 03:38:57.420 ,3,0,0.,24.0,0.,24.0,0.,24.0,0.,24.0
1986-01-24 03:39:21.420 ,2,1,0.,24.0,0.,24.0,0.,24.0,0.,24.0
1986-01-24 03:39:45.420 ,2,0,0.,24.0,0.,24.0,0.,24.0,0.,24.0
1986-01-24 03:40:09.420 ,1,1,0.,24.0,0.,24.0,0.,24.0,0.,24.0
1986-01-24 03:40:33.420 ,1,0,0.,24.0,0.,24.0,0.,24.0,0.,24.0
1986-01-24 03:40:57.420 ,0,1,0.,24.0,0.,24.0,0.,24.0,0.,24.0
1986-01-24 03:41:21.420 ,0,0,0.,24.0,0.,24.0,0.,24.0,0.,24.0
1986-01-24 03:41:45.420 ,0,1,0.,24.0,0.,24.0,0.,24.0,0.,24.0
1986-01-24 03:42:09.420 ,0,0,0.,24.0,0.,24.0,0.,24.0,0.,24.0
1986-01-24 03:42:33.420 ,1,1,0.,24.0,0.,24.0,0.,24.0,0.,24.0
1986-01-24 03:42:57.420 ,1,0,0.,24.0,0.,24.0,0.,24.0,0.,24.0
1986-01-24 03:43:21.420 ,2,1,0.,24.0,0.,24.0,0.,24.0,0.,24.0
1986-01-24 03:43:45.420 ,2,0,0.,24.0,0.,24.0,0.,24.0,0.,24.0
1986-01-24 03:44:09.420 ,3,1,0.,24.0,0.,24.0,0.,24.0,0.,24.0
1986-01-24 03:44:33.420 ,3,0,0.,24.0,0.,24.0,0.,24.0,0.,24.0
1986-01-24 03:44:57.420 ,4,1,0.,24.0,0.,24.0,0.,24.0,0.,24.0
1986-01-24 03:45:21.420 ,4,0,0.,24.0,0.,24.0,0.,24.0,0.,24.0
1986-01-24 03:45:45.420 ,5,1,0.,24.0,0.,24.0,0.,24.0,0.,24.0
1986-01-24 03:46:09.420 ,5,0,0.,24.0,0.,24.0,0.,24.0,0.,24.0
1986-01-24 03:46:33.420 ,6,1,0.,24.0,0.,24.0,0.,24.0,0.,24.0
1986-01-24 03:46:57.420 ,6,0,0.,24.0,0.,24.0,0.,24.0,0.,24.0
1986-01-24 03:47:21.420 ,7,1,0.,24.0,0.,24.0,0.,24.0,0.,24.0
1986-01-24 03:47:45.420 ,7,0,0.,24.0,0.,24.0,0.,24.0,0.,24.0
1986-01-24 03:48:09.420 ,7,1,0.,24.0,0.,24.0,0.,24.0,0.,24.0
1986-01-24 03:48:33.420 ,7,0,0.,24.0,0.,24.0,0.,24.0,0.,24.0
1986-01-24 03:48:57.420 ,6,1,0.,24.0,0.,24.0,0.,24.0,0.,24.0
1986-01-24 03:49:21.420 ,6,0,0.,24.0,0.,24.0,0.,24.0,0.,24.0
1986-01-24 03:49:45.420 ,5,1,0.,24.0,0.,24.0,0.,24.0,0.,24.0
1986-01-24 03:50:09.420 ,5,0,0.,24.0,0.,24.0,0.,24.0,0.,24.0
1986-01-24 03:50:33.420 ,4,1,0.,24.0,0.,24.0,0.,24.0,0.,24.0
1986-01-24 03:50:57.420 ,4,0,0.,24.0,0.,24.0,0.,24.0,0.,24.0
1986-01-24 03:51:21.420 ,3,1,0.,24.0,0.,24.0,0.,24.0,0.,24.0
1986-01-24 03:51:45.420 ,3,0,0.,24.0,0.,24.0,0.,24.0,0.,24.0
1986-01-24 03:52:09.420 ,2,1,0.,24.0,0.,24.0,0.,24.0,0.,24.0
1986-01-24 03:52:57.420 ,1,1,0.,24.0,0.,24.0,0.,24.0,0.,24.0
1986-01-24 03:53:21.420 ,1,0,0.,24.0,0.,24.0,0.,24.0,0.,24.0
1986-01-24 03:53:45.420 ,0,1,0.,24.0,0.,24.0,0.,24.0,0.,24.0
1986-01-24 03:54:09.420 ,0,0,0.,24.0,0.,24.0,0.,24.0,0.,24.0
1986-01-24 03:54:33.420 ,0,1,0.,24.0,0.,24.0,0.,24.0,0.,24.0
1986-01-24 03:54:57.420 ,0,0,0.,24.0,0.,24.0,0.,24.0,0.,24.0
1986-01-24 03:55:21.420 ,1,1,0.,24.0,0.,24.0,0.,24.0,0.,24.0
1986-01-24 03:55:45.420 ,1,0,0.,24.0,0.,24.0,0.,24.0,0.,24.0
1986-01-24 03:56:09.420 ,2,1,0.,24.0,0.,24.0,0.,24.0,0.,24.0
1986-01-24 03:56:33.420 ,2,0,0.,24.0,0.,24.0,0.,24.0,0.,24.0
1986-01-24 03:56:57.420 ,3,1,0.,24.0,0.,24.0,0.,24.0,0.,24.0
1986-01-24 03:57:21.420 ,3,0,0.,24.0,0.,24.0,0.,24.0,0.,24.0
1986-01-24 03:57:45.420 ,4,1,0.,24.0,0.,24.0,0.,24.0,0.,24.0
1986-01-24 03:58:09.420 ,4,0,0.,24.0,0.,24.0,0.,24.0,0.,24.0
1986-01-24 03:58:33.420 ,5,1,0.,24.0,0.,24.0,0.,24.0,0.,24.0
1986-01-24 03:58:57.420 ,5,0,0.,24.0,0.,24.0,0.,24.0,0.,24.0
1986-01-24 03:59:21.420 ,6,1,0.,24.0,0.,24.0,0.,24.0,0.,24.0
1986-01-24 03:59:45.420 ,6,0,0.,24.0,0.,24.0,0.,24.0,0.,24.0
1986-01-24 04:00:09.420 ,7,1,0.,24.0,0.,24.0,0.,24.0,0.,24.0
1986-01-24 04:00:33.420 ,7,0,0.,24.0,0.,24.0,0.,24.0,0.,24.0
1986-01-24 04:00:57.420 ,7,1,0.,24.0,0.,24.0,0.,24.0,0.,24.0
1986-01-24 04:01:21.420 ,7,0,0.,24.0,0.,24.0,0.,24.0,0.,24.0
1986-01-24 04:01:45.420 ,6,1,0.,24.0,0.,24.0,0.,24.0,0.,24.0
1986-01-24 04:02:09.420 ,6,0,0.,24.0,0.,24.0,0.,24.0,0.,24.0
1986-01-24 04:02:33.420 ,5,1,0.,24.0,0.,24.0,0.,24.0,0.,24.0
1986-01-24 04:02:57.420 ,5,0,0.,24.0,0.,24.0,0.,24.0,0.,24.0
1986-01-24 04:03:21.420 ,4,1,0.,24.0,0.,24.0,0.,24.0,0.,24.0
1986-01-24 04:03:45.420 ,4,0,0.,24.0,0.,24.0,0.,24.0,0.,24.0
1986-01-24 04:04:09.420 ,3,1,0.,24.0,0.,24.0,0.,24.0,0.,24.0
1986-01-24 04:04:33.420 ,3,0,0.,24.0,0.,24.0,0.,24.0,0.,24.0
1986-01-24 04:04:57.420 ,2,1,0.,24.0,0.,24.0,0.,24.0,0.,24.0
1986-01-24 04:05:21.420 ,2,0,0.,24.0,0.,24.0,0.,24.0,0.,24.0
1986-01-24 04:05:45.420 ,1,1,0.,24.0,0.,24.0,0.,24.0,0.,24.0
1986-01-24 04:06:09.420 ,1,0,0.,24.0,0.,24.0,0.,24.0,0.,24.0
1986-01-24 04:06:33.420 ,0,1,0.,24.0,0.,24.0,0.,24.0,0.,24.0
1986-01-24 04:06:57.420 ,0,0,0.,24.0,0.,24.0,0.,24.0,0.,24.0
1986-01-24 04:07:21.420 ,0,1,0.,24.0,0.,24.0,0.,24.0,0.,24.0
1986-01-24 04:07:45.420 ,0,0,0.,24.0,0.,24.0,0.,24.0,0.,24.0
1986-01-24 04:08:09.420 ,1,1,0.,24.0,0.,24.0,0.,24.0,0.,24.0
1986-01-24 04:08:33.420 ,1,0,0.,24.0,0.,24.0,0.,24.0,0.,24.0
1986-01-24 04:08:57.420 ,2,1,0.,24.0,0.,24.0,0.,24.0,0.,24.0
1986-01-24 04:09:21.420 ,2,0,0.,24.0,0.,24.0,0.,24.0,0.,24.0
1986-01-24 04:09:45.420 ,3,1,0.,24.0,0.,24.0,0.,24.0,0.,24.0
1986-01-24 04:10:09.420 ,3,0,0.,24.0,0.,24.0,0.,24.0,0.,24.0
1986-01-24 04:10:33.420 ,4,1,0.,24.0,0.,24.0,0.,24.0,0.,24.0
1986-01-24 04:10:57.420 ,4,0,0.,24.0,0.,24.0,0.,24.0,0.,24.0
1986-01-24 04:11:21.420 ,5,1,0.,24.0,0.,24.0,0.,24.0,0.,24.0
1986-01-24 04:11:45.420 ,5,0,0.,24.0,0.,24.0,0.,24.0,0.,24.0
1986-01-24 04:12:09.420 ,6,1,0.,24.0,0.,24.0,0.,24.0,0.,24.0
1986-01-24 04:12:33.420 ,6,0,0.,24.0,0.,24.0,0.,24.0,0.,24.0
1986-01-24 04:12:57.420 ,7,1,0.,24.0,0.,24.0,0.,24.0,0.,24.0
1986-01-24 04:13:21.420 ,7,0,0.,24.0,0.,24.0,0.,24.0,0.,24.0
1986-01-24 04:13:45.420 ,7,1,0.,24.0,0.,24.0,0.,24.0,0.,24.0
1986-01-24 04:14:09.420 ,7,0,0.,24.0,0.,24.0,0.,24.0,0.,24.0
1986-01-24 04:14:33.420 ,6,1,0.,24.0,0.,24.0,0.,24.0,0.,24.0
1986-01-24 04:14:57.420 ,6,0,0.,24.0,0.,24.0,0.,24.0,0.,24.0
1986-01-24 04:15:21.420 ,5,1,0.,24.0,0.,24.0,0.,24.0,0.,24.0
1986-01-24 04:15:45.420 ,5,0,0.,24.0,0.,24.0,0.,24.0,0.,24.0
1986-01-24 04:16:09.420 ,4,1,0.,24.0,0.,24.0,0.,24.0,0.,24.0
1986-01-24 04:16:33.420 ,4,0,0.,24.0,0.,24.0,0.,24.0,0.,24.0
1986-01-24 04:16:57.420 ,3,1,0.,24.0,0.,24.0,0.,24.0,0.,24.0
1986-01-24 04:17:21.420 ,3,0,0.,24.0,0.,24.0,0.,24.0,0.,24.0
1986-01-24 04:17:45.420 ,2,1,0.,24.0,0.,24.0,0.,24.0,0.,24.0
1986-01-24 04:18:09.420 ,2,0,0.,24.0,0.,24.0,0.,24.0,0.,24.0
1986-01-24 04:18:33.420 ,1,1,0.,24.0,0.,24.0,0.,24.0,0.,24.0
1986-01-24 04:18:57.420 ,0,0,0.,24.0,0.,24.0,0.,24.0,0.,24.0
1986-01-24 04:19:56.820 ,0,0,,0,,0,,0,,0
1986-01-24 04:20:09.420 ,7,0,0.,24.0,0.,24.0,0.,24.0,0.,24.0
1986-01-24 04:20:33.420 ,7,0,0.,24.0,0.,24.0,0.,24.0,0.,24.0
1986-01-24 04:20:57.420 ,0,0,0.,24.0,0.,24.0,0.,24.0,0.,24.0
1986-01-24 04:21:21.420 ,1,1,0.,24.0,0.,24.0,0.,24.0,0.,24.0
1986-01-24 04:21:45.420 ,0,0,0.,24.0,0.,24.0,0.,24.0,0.,24.0
1986-01-24 04:22:09.420 ,0,0,0.,24.0,0.,24.0,0.,24.0,0.,24.0
1986-01-24 04:22:33.420 ,6,0,0.,24.0,0.,24.0,0.,24.0,0.,24.0
1986-01-24 04:22:57.420 ,6,0,0.,24.0,0.,24.0,0.,24.0,0.,24.0
1986-01-24 04:23:21.420 ,6,0,0.,24.0,0.,24.0,0.,24.0,0.,24.0
1986-01-24 04:23:45.420 ,6,0,0.,24.0,0.,24.0,0.,24.0,0.,24.0
1986-01-24 04:24:09.420 ,6,0,0.,24.0,0.,24.0,0.,24.0,0.,24.0
1986-01-24 04:24:33.420 ,6,0,0.,24.0,0.,24.0,0.,24.0,0.,24.0
1986-01-24 04:24:57.420 ,6,0,0.,24.0,0.,24.0,0.,24.0,0.,24.0
1986-01-24 04:25:21.420 ,6,0,0.,24.0,0.,24.0,0.,24.0,0.,24.0
1986-01-24 04:25:45.420 ,6,0,0.,24.0,0.,24.0,0.,24.0,0.,24.0
1986-01-24 04:26:09.420 ,6,0,0.,24.0,0.,24.0,0.,24.0,0.,24.0
1986-01-24 04:26:33.420 ,6,0,0.,24.0,0.,24.0,0.,24.0,0.,24.0
1986-01-24 04:26:57.420 ,6,0,0.,24.0,0.,24.0,0.,24.0,0.,24.0
1986-01-24 04:27:21.420 ,6,0,0.,24.0,0.,24.0,0.,24.0,0.,24.0
1986-01-24 04:27:45.420 ,6,0,0.,24.0,0.,24.0,0.,24.0,0.,24.0
1986-01-24 04:28:09.420 ,6,0,0.,24.0,0.,24.0,0.,24.0,0.,24.0
1986-01-24 04:28:33.420 ,6,0,0.,24.0,0.,24.0,0.,24.0,0.,24.0
1986-01-24 04:28:57.420 ,6,0,0.,24.0,0.,24.0,0.,24.0,0.,24.0
1986-01-24 04:29:21.420 ,6,0,0.,24.0,0.,24.0,0.,24.0,0.,24.0
1986-01-24 04:29:45.420 ,6,0,0.,24.0,0.,24.0,0.,24.0,0.,24.0
1986-01-24 04:30:09.420 ,6,0,0.,24.0,0.,24.0,0.,24.0,0.,24.0
1986-01-24 04:30:33.420 ,6,0,0.,24.0,0.,24.0,0.,24.0,0.,24.0
1986-01-24 04:30:57.420 ,6,0,0.,24.0,0.,24.0,0.,24.0,0.,24.0
1986-01-24 04:31:21.420 ,6,0,0.,24.0,0.,24.0,0.,24.0,0.,24.0
1986-01-24 04:31:45.420 ,6,0,0.,24.0,0.,24.0,0.,24.0,0.,24.0
1986-01-24 04:32:09.420 ,6,0,0.,24.0,0.,24.0,0.,24.0,0.,24.0
1986-01-24 04:32:33.420 ,6,0,0.,24.0,0.,24.0,0.,24.0,0.,24.0
1986-01-24 04:32:57.420 ,7,1,0.,24.0,0.,24.0,0.,24.0,0.,24.0
1986-01-24 04:33:21.420 ,3,1,0.,24.0,0.,24.0,0.,24.0,0.,24.0
1986-01-24 04:33:45.420 ,0,1,0.,24.0,0.,24.0,0.,24.0,0.,24.0
1986-01-24 04:34:09.420 ,4,1,0.,24.0,0.,24.0,0.,24.0,0.,24.0
1986-01-24 04:34:33.410 ,6,0,0.,24.0,0.,24.0,0.,24.0,0.,24.0
1986-01-24 04:34:57.410 ,6,0,0.,24.0,0.,24.0,0.,24.0,0.,24.0
1986-01-24 04:35:21.410 ,6,0,0.,24.0,0.,24.0,0.,24.0,0.,24.0
1986-01-24 04:35:45.410 ,6,0,0.,24.0,0.,24.0,0.,24.0,0.,24.0
1986-01-24 04:36:09.410 ,6,0,0.,24.0,0.,24.0,0.,24.0,0.,24.0
1986-01-24 04:36:33.410 ,6,0,0.,24.0,0.,24.0,0.,24.0,0.,24.0
1986-01-24 04:36:57.410 ,6,0,0.,24.0,0.,24.0,0.,24.0,0.,24.0
1986-01-24 04:37:21.410 ,6,0,0.,24.0,0.,24.0,0.,24.0,0.,24.0
1986-01-24 04:38:15.410 ,6,0,0.,24.0,0.,24.0,0.,24.0,0.,24.0
1986-01-24 04:38:33.410 ,6,0,0.,24.0,0.,24.0,0.,24.0,0.,24.0
1986-01-24 04:38:57.410 ,6,0,0.,24.0,0.,24.0,0.,24.0,0.,24.0
1986-01-24 04:39:21.410 ,6,0,0.,24.0,0.,24.0,0.,24.0,0.,24.0
1986-01-24 04:39:45.410 ,6,0,0.,24.0,0.,24.0,0.,24.0,0.,24.0
1986-01-24 04:40:09.410 ,6,0,0.,24.0,0.,24.0,0.,24.0,0.,24.0
1986-01-24 04:40:33.410 ,6,0,0.,24.0,0.,24.0,0.,24.0,0.,24.0
1986-01-24 04:40:57.410 ,6,0,0.,24.0,0.,24.0,0.,24.0,0.,24.0
1986-01-24 04:41:21.410 ,6,0,0.,24.0,0.,24.0,0.,24.0,0.,24.0
1986-01-24 04:41:45.410 ,6,0,0.,24.0,0.,24.0,0.,24.0,0.,24.0
1986-01-24 04:42:09.410 ,6,0,0.,24.0,0.,24.0,0.,24.0,0.,24.0
1986-01-24 04:42:33.410 ,6,0,0.,24.0,0.,24.0,0.,24.0,0.,24.0
1986-01-24 04:42:57.410 ,6,0,0.,24.0,0.,24.0,0.,24.0,0.,24.0
1986-01-24 04:43:21.410 ,6,0,0.,24.0,0.,24.0,0.,24.0,0.,24.0
1986-01-24 04:43:45.410 ,6,0,0.,24.0,0.,24.0,0.,24.0,0.,24.0
1986-01-24 04:44:09.410 ,6,0,0.,24.0,0.,24.0,0.,24.0,0.,24.0
1986-01-24 04:44:33.410 ,6,0,0.,24.0,0.,24.0,0.,24.0,0.,24.0
1986-01-24 04:44:57.410 ,7,1,0.,24.0,0.,24.0,0.,24.0,0.,24.0
1986-01-24 04:45:21.410 ,3,1,0.,24.0,0.,24.0,0.,24.0,0.,24.0
1986-01-24 04:45:45.410 ,0,1,0.,24.0,0.,24.0,0.,24.0,0.,24.0
1986-01-24 04:46:09.410 ,4,1,0.,24.0,0.,24.0,0.,24.0,0.,24.0
1986-01-24 04:46:33.410 ,6,0,0.,24.0,0.,24.0,0.,24.0,0.,24.0
1986-01-24 04:46:57.410 ,6,0,0.,24.0,0.,24.0,0.,24.0,0.,24.0
1986-01-24 04:47:21.410 ,6,0,0.,24.0,0.,24.0,0.,24.0,0.,24.0
1986-01-24 04:47:45.410 ,6,0,0.,24.0,0.,24.0,0.,24.0,0.,24.0
1986-01-24 04:48:09.410 ,6,0,0.,24.0,0.,24.0,0.,24.0,0.,24.0
1986-01-24 04:48:33.410 ,6,0,0.,24.0,0.,24.0,0.,24.0,0.,24.0
1986-01-24 04:48:57.410 ,6,0,0.,24.0,0.,24.0,0.,24.0,0.,24.0
1986-01-24 04:49:21.410 ,6,0,0.,24.0,0.,24.0,0.,24.0,0.,24.0
1986-01-24 04:49:45.410 ,6,0,0.,24.0,0.,24.0,0.,24.0,0.,24.0
1986-01-24 04:50:09.410 ,6,0,0.,24.0,0.,24.0,0.,24.0,0.,24.0
1986-01-24 04:50:33.410 ,6,0,0.,24.0,0.,24.0,0.,24.0,0.,24.0
1986-01-24 04:50:57.410 ,6,0,0.,24.0,0.,24.0,0.,24.0,0.,24.0
1986-01-24 04:51:21.410 ,6,0,0.,24.0,0.,24.0,0.,24.0,0.,24.0
1986-01-24 04:51:45.410 ,6,0,0.,24.0,0.,24.0,0.,24.0,0.,24.0
1986-01-24 04:52:09.410 ,6,0,0.,24.0,0.,24.0,0.,24.0,0.,24.0
1986-01-24 04:52:33.410 ,6,0,0.,24.0,0.,24.0,0.,24.0,0.,24.0
1986-01-24 04:52:57.410 ,6,0,0.,24.0,0.,24.0,0.,24.0,0.,24.0
1986-01-24 04:53:21.410 ,6,0,0.,24.0,0.,24.0,0.,24.0,0.,24.0
1986-01-24 04:53:45.410 ,6,0,0.,24.0,0.,24.0,0.,24.0,0.,24.0
1986-01-24 04:54:09.410 ,6,0,0.,24.0,0.,24.0,0.,24.0,0.,24.0
1986-01-24 04:54:33.410 ,6,0,0.,24.0,0.,24.0,0.,24.0,0.,24.0
1986-01-24 04:54:57.410 ,6,0,0.,24.0,0.,24.0,0.,24.0,0.,24.0
1986-01-24 04:55:21.410 ,6,0,0.,24.0,0.,24.0,0.,24.0,0.,24.0
1986-01-24 04:55:45.410 ,6,0,0.,24.0,0.,24.0,0.,24.0,0.,24.0
1986-01-24 04:56:09.410 ,6,0,0.,24.0,0.,24.0,0.,24.0,0.,24.0
1986-01-24 04:56:33.410 ,6,0,0.,24.0,0.,24.0,0.,24.0,0.,24.0
1986-01-24 04:56:57.410 ,7,1,0.,24.0,0.,24.0,0.,24.0,0.,24.0
1986-01-24 04:57:21.410 ,3,1,0.,24.0,0.,24.0,0.,24.0,0.,24.0
1986-01-24 04:57:45.410 ,0,1,0.,24.0,0.,24.0,0.,24.0,0.,24.0
1986-01-24 04:58:09.410 ,4,1,0.,24.0,0.,24.0,0.,24.0,0.,24.0
1986-01-24 04:58:33.410 ,6,0,0.,24.0,0.,24.0,0.,24.0,0.,24.0
1986-01-24 04:58:57.410 ,6,0,0.,24.0,0.,24.0,0.,24.0,0.,24.0
1986-01-24 04:59:21.410 ,6,0,0.,24.0,0.,24.0,0.,24.0,0.,24.0
1986-01-24 04:59:45.410 ,6,0,0.,24.0,0.,24.0,0.,24.0,0.,24.0
1986-01-24 05:00:09.410 ,6,0,0.,24.0,0.,24.0,0.,24.0,0.,24.0
1986-01-24 05:00:33.410 ,6,0,0.,24.0,0.,24.0,0.,24.0,0.,24.0
1986-01-24 05:00:57.410 ,6,0,0.,24.0,0.,24.0,0.,24.0,0.,24.0
1986-01-24 05:01:21.410 ,6,0,0.,24.0,0.,24.0,0.,24.0,0.,24.0
1986-01-24 05:01:45.410 ,6,0,0.,24.0,0.,24.0,0.,24.0,0.,24.0
1986-01-24 05:02:09.410 ,6,0,0.,24.0,0.,24.0,0.,24.0,0.,24.0
1986-01-24 05:02:33.410 ,6,0,0.,24.0,0.,24.0,0.,24.0,0.,24.0
1986-01-24 05:02:57.410 ,6,0,0.,24.0,0.,24.0,0.,24.0,0.,24.0
1986-01-24 05:03:21.410 ,6,0,0.,24.0,0.,24.0,0.,24.0,0.,24.0
1986-01-24 05:03:45.410 ,6,0,0.,24.0,0.,24.0,0.,24.0,0.,24.0
1986-01-24 05:04:09.410 ,6,0,0.,24.0,0.,24.0,0.,24.0,0.,24.0
1986-01-24 05:04:33.410 ,6,0,0.,24.0,0.,24.0,0.,24.0,0.,24.0
1986-01-24 05:04:57.410 ,6,0,0.,24.0,0.,24.0,0.,24.0,0.,24.0
1986-01-24 05:05:21.410 ,6,0,0.,24.0,0.,24.0,0.,24.0,0.,24.0
1986-01-24 05:05:45.410 ,6,0,0.,24.0,0.,24.0,0.,24.0,0.,24.0
1986-01-24 05:06:09.410 ,6,0,0.,24.0,0.,24.0,0.,24.0,0.,24.0
1986-01-24 05:06:33.410 ,6,0,0.,24.0,0.,24.0,0.,24.0,0.,24.0
1986-01-24 05:06:57.410 ,6,0,0.,24.0,0.,24.0,0.,24.0,0.,24.0
1986-01-24 05:07:21.410 ,6,0,0.,24.0,0.,24.0,0.,24.0,0.,24.0
1986-01-24 05:07:45.410 ,6,0,0.,24.0,0.,24.0,0.,24.0,0.,24.0
1986-01-24 05:08:09.410 ,6,0,0.,24.0,0.,24.0,0.,24.0,0.,24.0
1986-01-24 05:08:33.410 ,6,0,0.,24.0,0.,24.0,0.,24.0,0.,24.0
1986-01-24 05:08:57.410 ,7,1,0.,24.0,0.,24.0,0.,24.0,0.,24.0
1986-01-24 05:09:21.410 ,3,1,0.,24.0,0.,24.0,0.,24.0,0.,24.0
1986-01-24 05:09:45.410 ,0,1,0.,24.0,0.,24.0,0.,24.0,0.,24.0
1986-01-24 05:10:09.410 ,4,1,0.,24.0,0.,24.0,0.,24.0,0.,24.0
1986-01-24 05:10:33.410 ,6,0,0.,24.0,0.,24.0,0.,24.0,0.,24.0
1986-01-24 05:10:57.410 ,6,0,0.,24.0,0.,24.0,0.,24.0,0.,24.0
1986-01-24 05:11:21.410 ,6,0,0.,24.0,0.,24.0,0.,24.0,0.,24.0
1986-01-24 05:11:45.410 ,6,0,0.,24.0,0.,24.0,0.,24.0,0.,24.0
1986-01-24 05:12:09.410 ,6,0,0.,24.0,0.,24.0,0.,24.0,0.,24.0
1986-01-24 05:12:33.410 ,6,0,0.,24.0,0.,24.0,0.,24.0,0.,24.0
1986-01-24 05:12:57.410 ,6,0,0.,24.0,0.,24.0,0.,24.0,0.,24.0
1986-01-24 05:13:21.410 ,6,0,0.,24.0,0.,24.0,0.,24.0,0.,24.0
1986-01-24 05:13:45.410 ,6,0,0.,24.0,0.,24.0,0.,24.0,0.,24.0
1986-01-24 05:14:09.410 ,6,0,0.,24.0,0.,24.0,0.,24.0,0.,24.0
1986-01-24 05:14:33.410 ,6,0,0.,24.0,0.,24.0,0.,24.0,0.,24.0
1986-01-24 05:14:57.410 ,6,0,0.,24.0,0.,24.0,0.,24.0,0.,24.0
1986-01-24 05:15:21.410 ,6,0,0.,24.0,0.,24.0,0.,24.0,0.,24.0
1986-01-24 05:15:45.410 ,6,0,0.,24.0,0.,24.0,0.,24.0,0.,24.0
1986-01-24 05:16:09.410 ,6,0,0.,24.0,0.,24.0,0.,24.0,0.,24.0
1986-01-24 05:16:33.410 ,6,0,0.,24.0,0.,24.0,0.,24.0,0.,24.0
1986-01-24 05:16:57.410 ,6,0,0.,24.0,0.,24.0,0.,24.0,0.,24.0
1986-01-24 05:17:21.410 ,6,0,0.,24.0,0.,24.0,0.,24.0,0.,24.0
1986-01-24 05:17:45.410 ,6,0,0.,24.0,0.,24.0,0.,24.0,0.,24.0
1986-01-24 05:18:09.410 ,6,0,0.,24.0,0.,24.0,0.,24.0,0.,24.0
1986-01-24 05:18:33.410 ,6,0,0.,24.0,0.,24.0,0.,24.0,0.,24.0
1986-01-24 05:18:57.410 ,6,0,0.,24.0,0.,24.0,0.,24.0,0.,24.0
1986-01-24 05:19:21.410 ,6,0,0.,24.0,0.,24.0,0.,24.0,0.,24.0
1986-01-24 05:19:45.410 ,6,0,0.,24.0,0.,24.0,0.,24.0,0.,24.0
1986-01-24 05:20:09.410 ,6,0,0.,24.0,0.,24.0,0.,24.0,0.,24.0
1986-01-24 05:20:33.410 ,6,0,0.,24.0,0.,24.0,0.,24.0,0.,24.0
1986-01-24 05:20:57.410 ,7,1,0.,24.0,0.,24.0,0.,24.0,0.,24.0
1986-01-24 05:21:21.410 ,3,1,0.,24.0,0.,24.0,0.,24.0,0.,24.0
1986-01-24 05:21:45.410 ,0,1,0.,24.0,0.,24.0,0.,24.0,0.,24.0
1986-01-24 05:22:09.410 ,4,1,0.,24.0,0.,24.0,0.,24.0,0.,24.0
1986-01-24 05:22:33.410 ,6,0,0.,24.0,0.,24.0,0.,24.0,0.,24.0
1986-01-24 05:22:57.410 ,6,0,0.,24.0,0.,24.0,0.,24.0,0.,24.0
1986-01-24 05:23:21.410 ,6,0,0.,24.0,0.,24.0,0.,24.0,0.,24.0
1986-01-24 05:23:45.410 ,6,0,0.,24.0,0.,24.0,0.,24.0,0.,24.0
1986-01-24 05:24:09.410 ,6,0,0.,24.0,0.,24.0,0.,24.0,0.,24.0
1986-01-24 05:24:33.410 ,6,0,0.,24.0,0.,24.0,0.,24.0,0.,24.0
1986-01-24 05:24:57.410 ,6,0,0.,24.0,0.,24.0,0.,24.0,0.,24.0
1986-01-24 05:25:21.410 ,6,0,0.,24.0,0.,24.0,0.,24.0,0.,24.0
1986-01-24 05:25:45.410 ,6,0,0.,24.0,0.,24.0,0.,24.0,0.,24.0
1986-01-24 05:26:09.410 ,6,0,0.,24.0,0.,24.0,0.,24.0,0.,24.0
1986-01-24 05:26:33.410 ,6,0,0.,24.0,0.,24.0,0.,24.0,0.,24.0
1986-01-24 05:26:57.410 ,6,0,0.,24.0,0.,24.0,0.,24.0,0.,24.0
1986-01-24 05:27:21.410 ,6,0,0.,24.0,0.,24.0,0.,24.0,0.,24.0
1986-01-24 05:27:45.410 ,6,0,0.,24.0,0.,24.0,0.,24.0,0.,24.0
1986-01-24 05:28:09.410 ,6,0,0.,24.0,0.,24.0,0.,24.0,0.,24.0
1986-01-24 05:28:33.410 ,6,0,0.,24.0,0.,24.0,0.,24.0,0.,24.0
1986-01-24 05:28:57.410 ,6,0,0.,24.0,0.,24.0,0.,24.0,0.,24.0
1986-01-24 05:29:21.410 ,6,0,0.,24.0,0.,24.0,0.,24.0,0.,24.0
1986-01-24 05:29:45.410 ,6,0,0.,24.0,0.,24.0,0.,24.0,0.,24.0
1986-01-24 05:30:09.410 ,6,0,0.,24.0,0.,24.0,0.,24.0,0.,24.0
1986-01-24 05:30:33.410 ,6,0,0.,24.0,0.,24.0,0.,24.0,0.,24.0
1986-01-24 05:30:57.410 ,6,0,0.,24.0,0.,24.0,0.,24.0,0.,24.0
1986-01-24 05:31:21.410 ,6,0,0.,24.0,0.,24.0,0.,24.0,0.,24.0
1986-01-24 05:31:45.410 ,6,0,0.,24.0,0.,24.0,0.,24.0,0.,24.0
1986-01-24 05:32:09.410 ,6,0,0.,24.0,0.,24.0,0.,24.0,0.,24.0
1986-01-24 05:32:33.410 ,6,0,0.,24.0,0.,24.0,0.,24.0,0.,24.0
1986-01-24 05:32:57.410 ,7,1,0.,24.0,0.,24.0,0.,24.0,0.,24.0
1986-01-24 05:33:21.410 ,3,1,0.,24.0,0.,24.0,0.,24.0,0.,24.0
1986-01-24 05:33:45.410 ,0,1,0.,24.0,0.,24.0,0.,24.0,0.,24.0
1986-01-24 05:34:09.410 ,4,1,0.,24.0,0.,24.0,0.,24.0,0.,24.0
1986-01-24 05:34:33.410 ,6,0,0.,24.0,0.,24.0,0.,24.0,0.,24.0
1986-01-24 05:34:57.410 ,6,0,0.,24.0,0.,24.0,0.,24.0,0.,24.0
1986-01-24 05:35:21.410 ,6,0,0.,24.0,0.,24.0,0.,24.0,0.,24.0
1986-01-24 05:35:45.410 ,6,0,0.,24.0,0.,24.0,0.,24.0,0.,24.0